| time (UTC) | temp F | wind direction | speed knots | gust knots | rain 1hr in | rain 24hr in | rain mn in | humidity % | barometer mb |
| 20260902204522 | 62 | 251 | 1.7 | 9.6 | 0.00 | 0.05 | 0.05 | 66 | 1003.7 |
| 20260902203015 | 62 | 219 | 0.9 | 9.6 | 0.01 | 0.05 | 0.05 | 65 | 1003.6 |
| 20260902201534 | 63 | 227 | 1.7 | 6.1 | 0.05 | 0.05 | 0.05 | 66 | 1003.6 |
| 20260902200015 | 63 | 234 | 0.0 | 2.6 | 0.05 | 0.05 | 0.05 | 69 | 1003.7 |
| 20260902194527 | 62 | 180 | 0.0 | 6.1 | 0.05 | 0.05 | 0.05 | 68 | 1003.8 |
| 20260902193113 | 64 | 238 | 3.5 | 10.4 | 0.04 | 0.04 | 0.04 | 62 | 1004.2 |
| 20260902191511 | 66 | 167 | 1.7 | 7.0 | 0.00 | 0.00 | 0.00 | 53 | 1003.7 |
| 20260902190013 | 67 | 150 | 0.0 | 8.7 | 0.00 | 0.00 | 0.00 | 52 | 1003.8 |
| 20260902184514 | 67 | 144 | 1.7 | 8.7 | 0.00 | 0.00 | 0.00 | 53 | 1003.9 |
| 20260902183004 | 64 | 169 | 0.9 | 5.2 | 0.00 | 0.00 | 0.00 | 60 | 1004.1 |
| 20260902181501 | 63 | 159 | 0.9 | 5.2 | 0.00 | 0.00 | 0.00 | 61 | 1004.4 |
| 20260902180104 | 62 | 165 | 0.9 | 5.2 | 0.00 | 0.00 | 0.00 | 62 | 1004.4 |
| 20260902174558 | 63 | 205 | 0.0 | 4.3 | 0.00 | 0.00 | 0.00 | 62 | 1004.6 |
| 20260902173108 | 62 | 178 | 0.9 | 6.1 | 0.00 | 0.00 | 0.00 | 63 | 1004.7 |
| 20260902171559 | 62 | 163 | 0.0 | 7.0 | 0.00 | 0.00 | 0.00 | 62 | 1004.8 |
| 20260902170054 | 62 | 156 | 1.7 | 4.3 | 0.00 | 0.00 | 0.00 | 62 | 1004.8 |
| 20260902164601 | 62 | 195 | 0.0 | 5.2 | 0.00 | 0.00 | 0.00 | 63 | 1005.1 |
| 20260902163100 | 62 | 212 | 0.0 | 2.6 | 0.00 | 0.00 | 0.00 | 63 | 1005.0 |
| 20260902161552 | 62 | 163 | 0.0 | 6.1 | 0.00 | 0.00 | 0.00 | 63 | 1005.2 |
| 20260902160057 | 62 | 204 | 0.9 | 3.5 | 0.00 | 0.00 | 0.00 | 62 | 1005.3 |
| 20260902154550 | 62 | 182 | 1.7 | 6.1 | 0.00 | 0.00 | 0.00 | 62 | 1005.3 |
| 20260902153053 | 61 | 182 | 1.7 | 7.8 | 0.00 | 0.00 | 0.00 | 62 | 1005.3 |
| 20260902151545 | 61 | 271 | 2.6 | 7.8 | 0.00 | 0.00 | 0.00 | 63 | 1005.6 |
| 20260902150040 | 60 | 114 | 0.0 | 8.7 | 0.00 | 0.00 | 0.00 | 65 | 1005.8 |
| 20260902144540 | 59 | 192 | 0.9 | 7.0 | 0.00 | 0.00 | 0.00 | 65 | 1006.0 |
| 20260902143038 | 59 | 95 | 0.9 | 9.6 | 0.00 | 0.00 | 0.00 | 66 | 1006.1 |
| 20260902141537 | 59 | 111 | 0.0 | 6.1 | 0.00 | 0.00 | 0.00 | 66 | 1006.1 |
| 20260902140035 | 59 | 171 | 0.0 | 9.6 | 0.00 | 0.00 | 0.00 | 66 | 1006.1 |
| 20260902134542 | 59 | 242 | 0.9 | 9.6 | 0.00 | 0.00 | 0.00 | 66 | 1006.3 |
| 20260902133035 | 59 | 161 | 0.9 | 12.2 | 0.00 | 0.00 | 0.00 | 66 | 1006.1 |
| 20260902131540 | 59 | 158 | 1.7 | 9.6 | 0.00 | 0.00 | 0.00 | 65 | 1006.3 |
| 20260902130033 | 59 | 162 | 0.0 | 6.1 | 0.00 | 0.00 | 0.00 | 66 | 1006.4 |
| 20260902124530 | 59 | 213 | 1.7 | 7.0 | 0.00 | 0.00 | 0.00 | 67 | 1006.6 |
| 20260902123033 | 59 | 264 | 1.7 | 7.0 | 0.00 | 0.00 | 0.00 | 67 | 1006.6 |
| 20260902121527 | 59 | 136 | 0.9 | 5.2 | 0.00 | 0.00 | 0.00 | 67 | 1006.6 |
| 20260902120026 | 59 | 79 | 1.7 | 5.2 | 0.00 | 0.00 | 0.00 | 67 | 1006.7 |
| 20260902114528 | 59 | 138 | 0.0 | 7.8 | 0.00 | 0.00 | 0.00 | 68 | 1006.9 |
| 20260902113023 | 59 | 152 | 1.7 | 7.0 | 0.00 | 0.00 | 0.00 | 68 | 1007.0 |
| 20260902111522 | 59 | 129 | 1.7 | 6.1 | 0.00 | 0.00 | 0.00 | 68 | 1006.9 |
| 20260902110033 | 59 | 153 | 0.0 | 4.3 | 0.00 | 0.00 | 0.00 | 68 | 1007.1 |
| 20260902104519 | 59 | 132 | 1.7 | 7.8 | 0.00 | 0.00 | 0.00 | 69 | 1007.2 |
| 20260902103020 | 58 | 60 | 0.0 | 2.6 | 0.00 | 0.00 | 0.00 | 68 | 1007.4 |
| 20260902101518 | 58 | 84 | 0.0 | 5.2 | 0.00 | 0.00 | 0.00 | 68 | 1007.4 |
| 20260902100017 | 58 | 142 | 0.0 | 5.2 | 0.00 | 0.00 | 0.00 | 68 | 1007.4 |
| 20260902094522 | 58 | 63 | 0.9 | 6.1 | 0.00 | 0.00 | 0.00 | 68 | 1007.5 |
| 20260902093020 | 58 | 150 | 0.0 | 6.1 | 0.00 | 0.00 | 0.00 | 68 | 1007.5 |
| 20260902091512 | 59 | 152 | 0.9 | 6.1 | 0.00 | 0.00 | 0.00 | 68 | 1007.6 |
| 20260902090011 | 59 | 170 | 0.0 | 7.0 | 0.00 | 0.00 | 0.00 | 67 | 1007.9 |
| 20260902084518 | 59 | 134 | 0.0 | 7.0 | 0.00 | 0.00 | 0.00 | 66 | 1008.0 |
| 20260902083009 | 59 | 119 | 0.0 | 4.3 | 0.00 | 0.00 | 0.00 | 67 | 1008.2 |
| 20260902081507 | 59 | 185 | 0.0 | 7.0 | 0.00 | 0.00 | 0.00 | 67 | 1008.2 |
| 20260902080006 | 59 | 150 | 0.9 | 7.0 | 0.00 | 0.00 | 0.00 | 67 | 1008.2 |
| 20260902074504 | 59 | 179 | 0.9 | 7.0 | 0.00 | 0.00 | 0.00 | 67 | 1008.2 |
| 20260902073002 | 59 | 171 | 0.9 | 8.7 | 0.00 | 0.00 | 0.00 | 66 | 1007.9 |
| 20260902071502 | 60 | 178 | 0.9 | 7.8 | 0.00 | 0.00 | 0.00 | 66 | 1007.9 |
| 20260902070058 | 60 | 76 | 0.9 | 6.1 | 0.00 | 0.00 | 0.00 | 67 | 1007.8 |
| 20260902064558 | 60 | 107 | 0.0 | 8.7 | 0.00 | 0.00 | 0.00 | 66 | 1007.9 |
| 20260902063058 | 60 | 169 | 0.9 | 7.8 | 0.00 | 0.00 | 0.00 | 66 | 1007.8 |
| 20260902060100 | 60 | 144 | 0.0 | 5.2 | 0.00 | 0.00 | 0.00 | 67 | 1008.0 |
| 20260902054610 | 60 | 53 | 0.0 | 4.3 | 0.00 | 0.00 | 0.00 | 66 | 1008.1 |
| 20260902053104 | 60 | 138 | 0.9 | 6.1 | 0.00 | 0.00 | 0.00 | 66 | 1008.3 |
| 20260902051553 | 61 | 154 | 0.9 | 4.3 | 0.00 | 0.00 | 0.00 | 65 | 1008.3 |
| 20260902050056 | 61 | 36 | 0.0 | 5.2 | 0.00 | 0.00 | 0.00 | 65 | 1008.5 |
| 20260902044554 | 61 | 238 | 0.0 | 6.1 | 0.00 | 0.00 | 0.00 | 64 | 1008.4 |
| 20260902043053 | 61 | 142 | 0.0 | 4.3 | 0.00 | 0.00 | 0.00 | 63 | 1008.4 |
| 20260902041553 | 62 | 74 | 0.9 | 7.0 | 0.00 | 0.00 | 0.00 | 63 | 1008.5 |
| 20260902040053 | 62 | 150 | 0.0 | 7.0 | 0.00 | 0.00 | 0.00 | 62 | 1008.5 |
| 20260902034553 | 63 | 241 | 0.0 | 6.1 | 0.00 | 0.00 | 0.00 | 61 | 1008.5 |
| 20260902033051 | 64 | 195 | 2.6 | 7.8 | 0.00 | 0.00 | 0.00 | 59 | 1008.4 |
| 20260902031550 | 64 | 46 | 0.9 | 6.1 | 0.00 | 0.00 | 0.00 | 59 | 1008.3 |
| 20260902030049 | 64 | 160 | 0.9 | 8.7 | 0.00 | 0.00 | 0.00 | 58 | 1008.1 |
| 20260902024548 | 65 | 248 | 0.9 | 7.8 | 0.00 | 0.00 | 0.00 | 57 | 1008.0 |
| 20260902023104 | 65 | 182 | 1.7 | 6.1 | 0.00 | 0.00 | 0.00 | 57 | 1008.0 |
| 20260902021548 | 65 | 246 | 0.0 | 7.0 | 0.00 | 0.00 | 0.00 | 59 | 1008.1 |
| 20260902020047 | 66 | 173 | 0.0 | 7.0 | 0.00 | 0.00 | 0.00 | 58 | 1008.0 |
| 20260902014548 | 67 | 198 | 0.9 | 8.7 | 0.00 | 0.00 | 0.00 | 55 | 1008.1 |
| 20260902013053 | 67 | 207 | 0.9 | 3.5 | 0.00 | 0.00 | 0.00 | 56 | 1008.0 |
| 20260902011546 | 67 | 204 | 0.9 | 6.1 | 0.00 | 0.00 | 0.00 | 57 | 1008.0 |
| 20260902010046 | 67 | 94 | 0.9 | 9.6 | 0.00 | 0.00 | 0.00 | 57 | 1008.1 |
| 20260902004545 | 68 | 42 | 0.0 | 8.7 | 0.00 | 0.00 | 0.00 | 57 | 1008.0 |
| 20260902003045 | 67 | 196 | 0.0 | 8.7 | 0.00 | 0.00 | 0.00 | 57 | 1008.1 |
| 20260902001559 | 67 | 126 | 0.0 | 6.1 | 0.00 | 0.00 | 0.00 | 57 | 1008.0 |
| 20260902000045 | 67 | 85 | 0.9 | 6.1 | 0.00 | 0.00 | 0.00 | 56 | 1008.2 |
| 20260901234543 | 68 | 188 | 0.0 | 4.3 | 0.00 | 0.00 | 0.00 | 55 | 1008.0 |
| 20260901233041 | 69 | 142 | 0.9 | 7.0 | 0.00 | 0.00 | 0.00 | 54 | 1008.0 |
| 20260901231540 | 70 | 179 | 3.5 | 10.4 | 0.00 | 0.00 | 0.00 | 52 | 1008.0 |
| 20260901230041 | 70 | 153 | 1.7 | 6.1 | 0.00 | 0.00 | 0.00 | 52 | 1007.9 |
| 20260901224540 | 70 | 153 | 0.9 | 7.8 | 0.00 | 0.00 | 0.00 | 50 | 1007.9 |
| 20260901223047 | 70 | 300 | 1.7 | 7.8 | 0.00 | 0.00 | 0.00 | 52 | 1008.1 |
| 20260901221554 | 70 | 188 | 0.9 | 7.8 | 0.00 | 0.00 | 0.00 | 53 | 1008.1 |
| 20260901220040 | 71 | 113 | 2.6 | 9.6 | 0.00 | 0.00 | 0.00 | 51 | 1008.2 |
| 20260901214538 | 70 | 355 | 1.7 | 7.0 | 0.00 | 0.00 | 0.00 | 53 | 1008.3 |
| 20260901213038 | 70 | 194 | 1.7 | 7.0 | 0.00 | 0.00 | 0.00 | 53 | 1008.3 |
| 20260901211537 | 69 | 153 | 0.9 | 7.0 | 0.00 | 0.00 | 0.00 | 54 | 1008.4 |
| 20260901210038 | 70 | 173 | 3.5 | 7.8 | 0.00 | 0.00 | 0.00 | 51 | 1008.5 |